When you browse on this site, cookies collect data to enhance your experience and personalize the content and advertising you see.
Visit our Privacy Policy to learn more. By continuing to use the site, you agree to this use of cookies and data.

Météo par heure à Northampton

Ce jour, 13 Juillet, Lundi

Heure Température Précipitation Vent Pression Humidité
00:00 +14°C° 0 mm 2 m/s 761 mmHg 87%
01:00 +14°C° 0 mm 2 m/s 760 mmHg 85%
02:00 +14°C° 0 mm 2 m/s 760 mmHg 84%
03:00 +14°C° 0 mm 2 m/s 760 mmHg 83%
04:00 +14°C° 0 mm 2 m/s 759 mmHg 82%
05:00 +13°C° 0 mm 3 m/s 759 mmHg 81%
06:00 +13°C° 0 mm 3 m/s 759 mmHg 80%
07:00 +14°C° 0 mm 3 m/s 759 mmHg 76%
08:00 +16°C° 0 mm 3 m/s 759 mmHg 73%
09:00 +17°C° 0 mm 4 m/s 759 mmHg 69%
10:00 +18°C° 0 mm 4 m/s 758 mmHg 70%
11:00 +18°C° 0 mm 4 m/s 758 mmHg 72%
12:00 +18°C° 0 mm 4 m/s 758 mmHg 73%
13:00 +19°C° 0 mm 4 m/s 757 mmHg 74%
14:00 +19°C° 0 mm 5 m/s 757 mmHg 74%
15:00 +20°C° 0 mm 6 m/s 757 mmHg 75%
16:00 +17°C° 0.2 mm 5 m/s 756 mmHg 80%
17:00 +16°C° 0.2 mm 5 m/s 756 mmHg 86%
18:00 +15°C° 0.2 mm 5 m/s 755 mmHg 92%
19:00 +15°C° 0.1 mm 5 m/s 755 mmHg 93%
20:00 +15°C° 0.1 mm 4 m/s 755 mmHg 94%
21:00 +14°C° 0.1 mm 4 m/s 755 mmHg 95%
22:00 +14°C° 0 mm 3 m/s 755 mmHg 95%
23:00 +14°C° 0 mm 3 m/s 754 mmHg 96%

Demain, 14 Juillet, Mardi

Heure Température Précipitation Vent Pression Humidité
00:00 +15°C° 0 mm 2 m/s 754 mmHg 97%
01:00 +13°C° 0 mm 3 m/s 754 mmHg 96%
02:00 +13°C° 0 mm 3 m/s 754 mmHg 96%
03:00 +13°C° 0 mm 3 m/s 753 mmHg 95%
04:00 +13°C° 0 mm 3 m/s 753 mmHg 92%
05:00 +13°C° 0 mm 3 m/s 754 mmHg 89%
06:00 +13°C° 0 mm 4 m/s 754 mmHg 86%
07:00 +13°C° 0 mm 4 m/s 754 mmHg 81%
08:00 +14°C° 0 mm 4 m/s 754 mmHg 76%
09:00 +15°C° 0 mm 4 m/s 754 mmHg 72%
10:00 +15°C° 0 mm 4 m/s 754 mmHg 69%
11:00 +17°C° 0 mm 4 m/s 754 mmHg 67%
12:00 +17°C° 0 mm 5 m/s 754 mmHg 65%
13:00 +17°C° 0.1 mm 5 m/s 754 mmHg 66%
14:00 +18°C° 0.1 mm 4 m/s 753 mmHg 67%
15:00 +18°C° 0.1 mm 4 m/s 753 mmHg 68%
16:00 +17°C° 0 mm 4 m/s 753 mmHg 70%
17:00 +17°C° 0 mm 4 m/s 753 mmHg 72%
18:00 +17°C° 0 mm 4 m/s 753 mmHg 74%
19:00 +14°C° 0 mm 3 m/s 753 mmHg 78%
20:00 +13°C° 0 mm 3 m/s 753 mmHg 81%
21:00 +12°C° 0 mm 3 m/s 753 mmHg 85%
22:00 +11°C° 0 mm 3 m/s 753 mmHg 86%
23:00 +11°C° 0 mm 3 m/s 753 mmHg 86%

Après-demain, 15 Juillet, Mercredi

Heure Température Précipitation Vent Pression Humidité
00:00 +11°C° 0 mm 3 m/s 753 mmHg 87%
01:00 +12°C° 0 mm 3 m/s 753 mmHg 87%
02:00 +12°C° 0 mm 3 m/s 753 mmHg 87%
03:00 +12°C° 0 mm 3 m/s 753 mmHg 87%
04:00 +12°C° 0 mm 3 m/s 753 mmHg 88%
05:00 +12°C° 0 mm 3 m/s 753 mmHg 88%
06:00 +12°C° 0 mm 3 m/s 753 mmHg 89%
07:00 +13°C° 0 mm 3 m/s 753 mmHg 88%
08:00 +13°C° 0 mm 3 m/s 753 mmHg 87%
09:00 +13°C° 0 mm 3 m/s 753 mmHg 86%
10:00 +14°C° 0 mm 3 m/s 753 mmHg 85%
11:00 +14°C° 0 mm 3 m/s 754 mmHg 84%
12:00 +15°C° 0 mm 4 m/s 754 mmHg 83%
13:00 +15°C° 0 mm 4 m/s 754 mmHg 83%
14:00 +15°C° 0 mm 4 m/s 754 mmHg 82%
15:00 +17°C° 0 mm 4 m/s 754 mmHg 81%
16:00 +15°C° 0 mm 4 m/s 754 mmHg 83%
17:00 +16°C° 0 mm 3 m/s 754 mmHg 84%
18:00 +16°C° 0 mm 3 m/s 754 mmHg 86%
19:00 +14°C° 0 mm 3 m/s 754 mmHg 87%
20:00 +14°C° 0 mm 3 m/s 755 mmHg 88%
21:00 +13°C° 0 mm 3 m/s 755 mmHg 89%
22:00 +13°C° 0 mm 3 m/s 755 mmHg 88%
23:00 +13°C° 0 mm 3 m/s 755 mmHg 87%

16 Juillet, Jeudi

Heure Température Précipitation Vent Pression Humidité
00:00 +14°C° 0 mm 3 m/s 755 mmHg 87%
01:00 +13°C° 0 mm 3 m/s 755 mmHg 87%
02:00 +13°C° 0 mm 3 m/s 755 mmHg 88%
03:00 +13°C° 0 mm 3 m/s 755 mmHg 89%
04:00 +13°C° 0 mm 4 m/s 755 mmHg 88%
05:00 +14°C° 0 mm 4 m/s 755 mmHg 88%
06:00 +14°C° 0 mm 4 m/s 755 mmHg 88%
07:00 +15°C° 0 mm 5 m/s 756 mmHg 84%
08:00 +16°C° 0 mm 5 m/s 756 mmHg 81%
09:00 +17°C° 0 mm 5 m/s 756 mmHg 78%
10:00 +17°C° 0 mm 5 m/s 756 mmHg 76%
11:00 +19°C° 0 mm 5 m/s 757 mmHg 74%
12:00 +20°C° 0 mm 4 m/s 757 mmHg 72%
13:00 +20°C° 0 mm 4 m/s 757 mmHg 72%
14:00 +20°C° 0 mm 4 m/s 757 mmHg 73%
15:00 +20°C° 0 mm 4 m/s 757 mmHg 74%
16:00 +20°C° 0 mm 3 m/s 757 mmHg 75%
17:00 +20°C° 0 mm 3 m/s 757 mmHg 77%
18:00 +20°C° 0 mm 2 m/s 757 mmHg 79%
19:00 +19°C° 0 mm 2 m/s 757 mmHg 82%
20:00 +18°C° 0 mm 2 m/s 757 mmHg 85%
21:00 +17°C° 0 mm 2 m/s 757 mmHg 88%
22:00 +16°C° 0 mm 2 m/s 757 mmHg 90%
23:00 +16°C° 0 mm 2 m/s 757 mmHg 91%

17 Juillet, Vendredi

Heure Température Précipitation Vent Pression Humidité
00:00 +15°C° 0 mm 2 m/s 757 mmHg 92%
01:00 +15°C° 0 mm 2 m/s 757 mmHg 93%
02:00 +15°C° 0 mm 2 m/s 757 mmHg 94%
03:00 +14°C° 0 mm 2 m/s 757 mmHg 95%
04:00 +15°C° 0 mm 2 m/s 757 mmHg 94%
05:00 +16°C° 0 mm 2 m/s 757 mmHg 93%
06:00 +16°C° 0 mm 2 m/s 757 mmHg 92%
07:00 +18°C° 0 mm 2 m/s 757 mmHg 87%
08:00 +19°C° 0 mm 2 m/s 758 mmHg 82%
09:00 +22°C° 0 mm 1 m/s 758 mmHg 77%
10:00 +23°C° 0.1 mm 2 m/s 758 mmHg 73%
11:00 +24°C° 0.1 mm 2 m/s 758 mmHg 69%
12:00 +24°C° 0.1 mm 2 m/s 758 mmHg 65%
13:00 +25°C° 0.1 mm 2 m/s 757 mmHg 64%
14:00 +25°C° 0.1 mm 2 m/s 757 mmHg 63%
15:00 +25°C° 0.1 mm 2 m/s 757 mmHg 62%
16:00 +25°C° 0.1 mm 2 m/s 757 mmHg 66%
17:00 +25°C° 0.1 mm 2 m/s 757 mmHg 69%
18:00 +24°C° 0.1 mm 2 m/s 757 mmHg 73%
19:00 +23°C° 0.1 mm 2 m/s 757 mmHg 78%
20:00 +20°C° 0.1 mm 2 m/s 757 mmHg 82%
21:00 +18°C° 0.1 mm 2 m/s 757 mmHg 87%
22:00 +17°C° 0 mm 2 m/s 757 mmHg 89%
23:00 +17°C° 0 mm 2 m/s 757 mmHg 91%

18 Juillet, Samedi

Heure Température Précipitation Vent Pression Humidité
00:00 +16°C° 0 mm 2 m/s 757 mmHg 92%
01:00 +16°C° 0 mm 2 m/s 756 mmHg 93%
02:00 +15°C° 0 mm 2 m/s 756 mmHg 95%
03:00 +15°C° 0 mm 2 m/s 756 mmHg 96%
04:00 +14°C° 0 mm 3 m/s 756 mmHg 94%
05:00 +14°C° 0 mm 3 m/s 756 mmHg 93%
06:00 +14°C° 0 mm 3 m/s 755 mmHg 91%
07:00 +17°C° 0 mm 3 m/s 755 mmHg 87%
08:00 +18°C° 0 mm 4 m/s 755 mmHg 82%
09:00 +19°C° 0 mm 4 m/s 755 mmHg 77%
10:00 +20°C° 0 mm 4 m/s 755 mmHg 75%
11:00 +20°C° 0 mm 5 m/s 755 mmHg 72%
12:00 +21°C° 0 mm 5 m/s 755 mmHg 70%
13:00 +21°C° 0 mm 5 m/s 754 mmHg 70%
14:00 +21°C° 0 mm 5 m/s 754 mmHg 71%
15:00 +21°C° 0 mm 5 m/s 754 mmHg 71%
16:00 +21°C° 0 mm 5 m/s 754 mmHg 74%
17:00 +21°C° 0 mm 5 m/s 754 mmHg 77%
18:00 +20°C° 0 mm 4 m/s 754 mmHg 79%
19:00 +19°C° 0.1 mm 4 m/s 754 mmHg 83%
20:00 +18°C° 0.1 mm 3 m/s 755 mmHg 87%
21:00 +17°C° 0.1 mm 3 m/s 755 mmHg 90%
22:00 +16°C° 0 mm 3 m/s 755 mmHg 89%
23:00 +14°C° 0 mm 3 m/s 755 mmHg 87%
Voir plus